GFSSGP_250_spd_060.txt.gz
Wind_Speed
30 34 38 38 39 33 34 25 17 15 14 14 12 11 10 10 9 12 16 19 21 26 26 24 21 20 22 27 34 38 35 31 36 39 39 40 42 41 42 44 41 38 40 40 43 43 44 47 46
33 37 36 34 40 34 33 24 17 14 15 16 13 11 11 10 10 10 15 19 22 26 27 25 25 25 23 24 28 30 34 32 28 31 33 34 36 39 42 43 42 43 44 39 39 41 40 43 44
34 31 37 31 39 38 30 25 18 16 16 15 14 11 12 12 12 12 13 18 22 24 30 29 27 27 27 28 24 26 25 28 24 24 29 33 35 38 40 42 45 44 43 43 43 44 45 45 47
31 37 34 38 44 39 29 27 21 18 17 14 14 13 12 13 12 13 13 14 19 24 29 30 30 26 26 28 31 29 29 34 37 35 30 30 31 33 36 37 38 43 45 45 45 47 48 51 51
43 39 38 41 41 40 26 27 23 20 18 15 12 12 13 12 12 12 14 15 16 20 26 30 32 32 28 27 30 34 35 38 36 34 35 35 36 35 36 40 40 41 43 45 48 50 50 50 47
29 38 34 34 43 35 26 26 25 20 19 18 14 11 13 13 13 13 13 15 16 18 21 24 27 31 28 27 28 28 33 37 39 39 37 39 41 41 42 46 45 47 48 46 46 47 45 43 45
37 40 38 35 43 34 27 27 29 22 20 19 18 14 12 13 14 14 14 15 16 16 18 19 22 24 27 28 26 27 28 29 32 35 38 39 42 44 47 48 47 46 44 42 41 40 40 39 39
40 39 35 38 36 36 35 27 32 25 22 21 18 16 13 11 14 16 15 15 15 15 16 17 18 19 23 23 23 25 27 27 30 33 36 38 40 39 39 39 39 38 38 36 35 35 35 35 35
42 36 38 32 37 39 36 27 29 29 21 21 21 17 14 11 12 15 16 16 16 15 15 17 17 18 18 22 24 26 29 30 31 32 34 34 34 34 35 36 37 38 37 36 35 33 32 33 32
45 37 32 36 35 33 35 29 29 33 23 20 20 21 15 13 12 12 15 17 18 18 17 17 17 18 20 22 25 29 30 30 31 33 33 34 34 34 35 36 36 36 37 36 35 34 34 34 34
42 37 37 35 31 38 38 33 30 31 26 22 19 19 18 15 13 14 15 17 18 20 20 20 20 20 22 23 26 27 28 29 30 31 32 34 35 37 38 38 39 38 38 36 36 35 35 36 35
46 47 44 34 32 40 38 39 32 33 29 25 20 18 18 17 16 14 16 16 18 20 21 21 22 23 25 27 29 30 31 31 33 33 33 33 35 36 37 38 38 38 37 36 35 35 35 34 33
42 40 36 34 38 40 37 38 37 36 31 27 24 20 17 17 16 15 15 16 16 19 20 21 22 23 25 27 29 32 32 32 32 32 32 34 34 36 36 36 36 36 36 35 34 33 33 34 34
50 42 41 43 39 40 35 35 41 43 38 29 28 25 21 18 17 15 15 16 17 18 19 21 22 23 25 26 28 29 31 32 33 35 34 34 34 34 34 35 35 35 35 35 33 33 34 33 34
47 48 46 42 36 35 34 37 40 48 39 32 32 26 24 20 18 17 16 16 18 19 20 20 21 23 24 26 28 30 32 34 34 35 35 35 35 34 33 34 35 35 35 36 35 34 35 36 36
49 48 46 45 38 36 37 42 41 41 38 35 33 31 26 23 21 19 18 17 17 19 21 22 22 23 24 26 28 30 31 33 35 37 37 35 36 36 36 36 36 36 36 37 38 38 38 38 38
52 50 46 47 41 39 38 45 41 38 36 36 38 35 29 26 25 23 22 21 21 21 21 22 23 25 26 28 30 32 33 35 35 37 37 37 36 37 36 37 38 38 39 40 41 41 43 43 42
57 57 54 49 45 42 47 49 45 39 35 40 39 36 35 32 31 29 26 28 27 24 24 22 23 24 27 29 31 32 34 35 37 37 38 38 37 40 37 38 40 41 42 43 44 45 46 47 47
56 58 56 53 50 55 58 50 47 39 37 41 38 43 39 36 33 33 34 29 27 26 25 25 26 26 28 30 30 31 34 35 36 36 38 38 37 38 41 43 44 44 45 45 45 47 48 50 51
67 62 61 58 56 59 55 49 47 41 39 36 40 44 47 45 37 36 37 37 33 27 26 27 29 29 29 31 30 32 33 33 35 36 35 36 37 36 39 42 44 45 45 46 47 49 50 52 54
64 66 68 65 59 60 58 51 48 41 38 36 42 45 48 46 41 38 38 39 39 35 29 29 30 30 29 29 30 32 34 34 35 37 36 38 38 40 42 44 45 46 47 48 49 51 53 55 58
69 70 69 67 65 61 59 47 45 44 40 37 44 46 50 45 45 44 40 42 42 40 36 34 32 34 34 32 34 33 33 34 35 38 41 39 38 41 42 44 45 46 48 50 53 55 56 59 62
73 75 74 73 67 62 54 47 47 46 41 45 50 49 47 48 49 47 47 43 45 45 40 39 36 36 39 42 39 38 38 39 40 41 40 41 41 42 43 44 47 47 47 49 53 55 57 59 61
74 75 76 76 71 62 59 54 39 53 47 49 56 52 50 50 50 50 49 50 47 49 48 45 43 41 39 41 44 43 43 44 43 46 47 45 45 46 47 48 49 49 50 51 52 54 57 58 59
77 79 81 79 74 62 63 58 43 50 56 53 56 60 57 55 53 53 52 53 53 54 53 53 50 47 45 44 42 45 47 47 47 47 50 48 49 49 50 52 53 54 55 56 57 58 59 61 62
79 78 76 77 76 69 67 54 49 53 54 57 59 64 64 61 62 60 55 57 58 58 58 58 54 54 50 48 49 49 48 50 53 53 55 54 55 54 56 57 57 58 59 62 62 62 64 66 67
78 75 78 82 77 74 66 58 58 59 61 58 59 64 69 69 68 68 65 62 63 64 63 63 64 61 56 54 59 60 60 60 59 61 63 64 64 61 61 60 60 61 63 65 67 68 71 71 73
80 81 82 83 80 79 68 69 64 64 67 65 65 66 70 73 73 73 72 71 70 71 71 69 68 68 70 70 70 69 69 68 67 67 68 69 68 67 65 64 63 65 68 68 70 70 74 76 77
85 83 84 88 87 84 77 71 70 70 70 70 71 71 73 74 78 78 77 76 76 76 77 77 74 73 73 74 75 76 77 76 76 75 72 70 67 68 70 69 70 69 72 72 74 74 77 79 80
91 90 92 93 88 93 91 73 74 77 79 79 78 75 76 79 79 80 81 82 82 82 82 81 80 80 79 81 81 83 82 82 80 77 74 73 69 71 72 72 74 75 75 76 79 80 81 83 83

GFSSGP_250_spd_063.txt.gz
Wind_Speed
23 26 29 28 31 32 27 34 26 20 17 13 8 10 11 12 12 14 15 12 13 18 17 18 21 18 19 24 28 38 37 37 38 40 39 39 38 38 38 39 38 38 39 41 42 40 42 41 41
29 23 26 24 29 37 35 32 24 17 15 12 7 7 9 10 11 12 12 12 14 15 17 18 17 19 20 21 25 32 36 34 33 30 28 39 47 45 41 38 38 38 41 40 42 42 44 45 43
26 21 26 26 35 41 35 30 25 17 14 11 7 7 7 9 9 10 12 11 13 16 17 18 17 21 21 22 19 22 27 33 35 35 28 23 31 35 36 35 36 38 41 43 45 45 45 47 47
22 24 33 38 35 36 34 29 25 18 14 11 8 8 6 8 10 9 11 11 13 15 17 20 17 20 23 26 25 23 24 26 27 24 24 26 28 30 33 36 37 38 40 39 40 44 48 50 51
37 28 29 25 27 36 31 26 25 17 15 11 9 10 8 8 9 9 8 11 12 15 18 20 22 21 22 28 30 30 32 29 28 33 32 33 33 34 34 36 36 38 41 43 43 45 49 52 53
36 33 28 29 26 32 34 32 26 19 16 14 11 9 11 10 10 9 9 9 11 14 18 21 23 25 23 23 30 32 32 34 37 38 38 41 40 38 39 41 43 43 44 46 46 47 47 48 49
29 26 29 34 29 31 33 31 23 24 18 16 15 11 9 10 10 11 11 9 11 13 18 20 23 26 29 29 29 30 32 33 35 36 39 41 41 42 43 43 44 43 45 45 44 45 44 43 43
24 32 31 34 28 28 34 30 24 25 23 18 15 14 10 8 10 11 13 12 11 12 15 19 23 26 29 31 30 32 30 30 30 29 33 36 39 39 40 41 41 42 42 42 41 41 42 42 41
35 39 34 38 32 27 37 32 25 25 25 22 18 16 14 9 8 10 13 14 13 14 15 16 19 22 23 25 27 29 28 27 29 30 33 36 38 37 38 39 39 39 39 40 40 41 40 40 39
40 38 36 34 35 30 37 32 30 24 26 26 21 18 16 13 9 8 11 14 15 16 16 16 17 19 21 23 24 25 28 31 33 35 36 36 37 38 39 40 39 38 39 39 41 42 42 42 42
40 40 30 30 30 40 36 32 36 28 24 26 26 21 18 16 14 10 11 13 14 16 18 19 19 20 21 22 24 25 26 28 31 33 35 35 35 36 38 40 40 41 41 42 42 42 42 41 40
41 34 28 32 36 30 29 35 34 35 27 29 27 26 21 20 16 14 12 12 15 16 18 20 21 22 23 24 25 27 28 29 32 34 35 37 38 39 38 39 39 39 39 40 40 41 41 41 40
56 38 32 30 33 33 34 35 31 35 35 35 27 25 24 21 20 18 15 13 14 16 17 19 20 22 23 25 27 28 31 32 34 37 39 38 37 37 39 38 39 39 38 40 41 40 40 39 39
40 36 39 38 44 34 32 33 31 33 40 37 31 27 25 23 21 20 19 17 15 16 17 19 20 23 23 24 26 27 28 30 31 32 35 37 38 38 39 40 40 40 41 39 39 40 41 41 41
42 42 47 51 40 36 35 32 30 33 35 35 35 29 28 27 24 22 21 21 20 18 18 19 21 23 24 26 27 28 29 30 32 33 35 37 39 39 39 40 40 41 41 40 40 39 41 42 43
43 44 50 54 42 36 38 37 30 35 34 38 39 33 34 28 27 25 26 23 22 24 22 23 24 23 25 26 28 29 31 32 33 35 35 36 38 39 39 39 38 38 41 42 42 44 43 44 44
53 53 55 52 41 41 35 37 30 30 38 42 39 36 36 30 33 26 27 29 29 27 28 26 27 28 28 29 29 31 32 32 33 35 36 35 38 40 38 40 40 39 41 43 43 44 44 45 46
55 50 54 52 46 45 40 46 36 31 42 43 41 40 42 37 34 32 33 30 28 30 29 31 29 28 30 30 32 33 35 35 35 33 34 35 35 39 39 39 41 41 43 43 43 44 45 47 49
53 60 58 54 53 51 48 43 42 36 46 49 49 45 44 40 39 35 35 33 32 31 31 29 32 30 31 33 33 35 35 35 36 37 32 33 35 35 36 38 39 40 43 44 45 44 46 47 50
63 59 59 58 52 50 44 46 49 46 49 48 49 49 42 36 32 35 35 38 38 37 36 34 32 33 32 32 32 32 34 34 36 36 36 34 36 37 37 38 42 41 43 44 46 46 47 48 52
71 71 66 58 52 55 57 57 52 51 53 49 51 49 41 38 36 36 38 38 40 38 40 39 38 36 36 35 37 35 34 36 37 37 38 37 38 39 40 41 42 42 43 45 46 48 48 48 53
72 71 73 71 69 67 58 50 55 56 56 51 52 50 44 41 42 39 35 38 44 42 41 42 42 42 40 38 38 39 40 41 42 42 42 42 40 41 43 44 45 46 47 48 49 49 48 49 52
77 72 71 73 72 65 62 59 61 60 57 55 55 49 49 49 46 42 40 37 43 47 43 43 44 44 43 43 43 45 44 44 45 46 48 49 46 45 46 49 47 48 50 51 53 53 53 55 56
79 77 77 76 71 66 65 64 56 63 61 60 59 56 52 52 50 49 44 42 44 48 50 48 48 47 47 48 49 49 50 49 50 46 48 52 52 49 46 47 50 51 52 53 55 57 59 60 60
80 82 80 78 76 66 69 65 51 61 65 63 61 60 59 57 56 53 50 50 51 52 52 52 52 51 51 53 55 55 55 55 55 53 52 56 55 57 57 55 54 57 60 62 62 62 62 62 64
82 81 78 75 73 69 66 59 57 57 64 66 67 65 64 63 62 61 60 60 60 60 59 57 54 54 54 56 59 61 62 62 63 60 60 61 62 62 62 62 64 64 65 64 66 66 66 66 67
78 78 79 79 76 73 66 62 64 64 65 69 67 68 69 69 68 68 69 69 70 69 66 63 60 59 59 59 61 64 65 68 69 65 67 68 70 70 70 71 70 69 68 67 69 70 71 72 72
77 77 78 79 75 72 65 62 62 66 69 71 71 69 71 72 71 75 77 77 75 75 73 70 68 66 65 64 66 68 72 73 74 75 74 74 75 76 77 75 73 71 71 72 72 72 76 75 76
84 83 84 84 80 75 67 59 61 65 68 70 73 73 74 75 77 78 81 83 84 82 79 76 74 73 74 74 73 74 76 78 79 81 82 82 82 82 81 81 79 78 77 75 75 74 76 78 79
92 90 90 90 86 87 81 66 70 71 72 74 76 76 78 80 82 84 86 87 88 87 84 82 81 81 82 82 82 82 82 83 84 86 87 87 87 87 86 84 84 82 81 81 80 79 79 80 82

GFSSGP_250_spd_069.txt.gz
Wind_Speed
23 27 27 17 19 23 27 34 36 34 30 25 24 24 23 23 22 21 18 15 14 15 15 17 20 23 27 26 25 26 28 28 32 35 31 28 25 24 22 24 27 28 30 31 35 36 37 39 40
26 22 22 26 25 28 31 36 34 34 29 25 23 22 22 20 21 19 16 13 13 12 12 13 14 16 19 23 22 24 24 27 29 31 30 28 26 24 24 25 29 32 37 38 40 41 42 45 43
30 31 31 25 26 28 30 31 26 33 32 26 24 22 21 20 18 17 14 13 12 12 10 12 13 13 15 22 23 24 23 24 27 30 29 29 28 28 29 29 30 32 34 36 39 41 42 42 45
32 36 35 30 24 20 26 31 29 30 34 28 24 21 19 18 16 14 13 12 11 11 10 9 12 14 16 21 23 24 26 27 27 28 31 29 31 31 34 34 38 37 36 39 39 41 44 46 47
32 34 29 27 26 30 29 30 30 31 34 29 23 20 17 13 13 11 11 10 10 10 9 11 13 16 18 21 24 24 25 27 28 28 31 34 34 34 35 37 39 39 39 41 44 45 46 45 48
24 25 22 22 25 24 27 27 28 39 30 31 24 18 16 12 10 10 10 8 9 9 10 12 14 14 16 19 23 26 28 27 26 25 27 28 30 30 32 36 39 42 43 45 45 46 45 45 47
31 29 28 28 26 27 25 26 32 34 31 31 26 18 15 10 8 8 8 9 8 8 9 10 11 13 15 17 20 24 27 28 29 30 31 32 36 37 38 40 43 45 44 44 42 41 41 42 45
34 33 36 34 26 30 30 30 29 32 32 26 28 20 16 13 6 6 6 8 8 7 7 9 10 13 16 16 18 20 24 27 27 32 34 37 38 40 43 44 46 44 43 42 42 42 41 41 42
36 39 30 28 33 30 26 24 24 27 28 29 25 22 16 15 12 7 6 7 8 8 8 9 11 13 13 15 18 20 23 25 28 30 34 36 42 42 43 43 43 40 41 39 37 38 38 38 40
34 26 26 32 25 24 28 23 28 26 28 30 25 22 18 17 15 13 11 10 8 9 9 10 12 12 13 15 17 19 20 22 24 28 30 33 35 37 36 37 36 35 34 35 37 39 39 41 42
36 33 33 33 26 25 20 23 25 22 29 29 28 22 16 18 19 16 14 13 12 11 11 11 12 13 14 15 17 20 22 23 24 26 28 29 30 31 32 33 34 34 35 37 38 39 41 41 41
42 42 39 37 33 25 28 26 21 23 29 28 32 23 23 16 19 22 21 17 14 13 14 14 14 15 16 17 18 21 22 23 24 25 27 28 29 31 31 33 34 36 37 37 38 40 40 41 42
46 39 42 34 31 28 31 25 26 26 31 31 28 34 26 27 20 23 20 21 19 17 16 16 15 16 18 20 21 23 25 26 27 28 30 31 32 33 34 35 36 36 38 39 41 41 43 43 42
49 44 42 36 34 33 27 26 29 30 35 31 28 30 34 30 26 25 24 21 21 20 17 16 17 17 17 18 20 22 24 27 29 30 31 33 34 36 37 38 38 39 39 41 43 45 45 44 43
46 50 42 39 40 26 26 30 34 33 34 24 27 26 33 31 31 31 30 26 26 22 21 20 19 18 18 19 21 22 24 27 30 32 31 33 34 36 38 41 42 42 42 43 44 46 46 46 45
54 53 51 44 43 38 44 42 37 30 31 31 33 29 30 33 31 33 37 37 32 25 22 24 23 23 23 23 23 24 24 26 29 32 35 35 36 37 38 40 41 41 41 42 43 44 45 44 42
50 52 55 52 47 46 44 42 36 36 35 34 36 37 36 31 34 39 36 40 38 32 28 27 26 30 26 26 27 28 28 29 30 32 34 37 38 38 40 39 38 39 41 41 41 41 44 44 44
60 55 53 51 50 48 47 42 39 34 39 38 37 39 38 34 35 40 39 36 37 37 37 34 32 32 30 29 29 31 33 35 35 37 39 41 43 43 42 41 39 38 42 43 42 42 42 45 45
62 64 57 53 53 51 44 43 46 43 41 38 41 41 41 38 38 43 44 41 40 39 38 38 37 37 39 34 32 32 32 35 38 39 40 42 43 44 45 45 45 44 43 44 46 46 46 48 49
62 60 61 57 56 54 54 52 48 41 45 45 47 39 44 45 42 45 49 46 47 45 44 41 38 38 41 40 40 38 33 33 38 41 42 42 42 44 45 46 46 44 45 46 47 49 49 48 48
70 68 64 61 58 57 53 49 48 50 50 55 51 49 49 53 53 58 57 52 51 50 47 45 45 43 43 43 44 43 42 44 44 43 44 45 46 47 48 48 51 48 48 49 48 48 51 51 53
75 77 75 72 62 58 57 55 59 59 63 56 61 59 59 55 59 62 54 54 55 53 51 53 52 50 49 49 50 50 47 49 49 49 47 48 49 52 53 53 54 54 54 55 55 54 53 53 55
75 69 69 65 62 64 62 61 65 66 62 65 62 67 67 62 58 61 57 57 56 55 54 54 54 56 54 54 54 54 54 55 54 55 53 52 53 53 54 54 55 59 59 59 59 59 58 61 62
80 79 77 71 67 66 67 63 61 65 71 72 73 72 67 63 62 61 60 62 60 62 60 58 57 57 58 58 59 60 59 59 59 60 62 61 61 61 60 59 57 58 60 61 63 65 67 67 68
84 86 82 81 77 70 73 70 62 72 80 81 76 70 68 66 68 66 66 64 67 67 65 62 61 61 60 61 62 63 64 64 64 65 66 67 67 66 67 67 67 68 68 68 67 70 73 76 76
90 91 89 84 83 83 82 78 79 79 79 80 78 72 70 72 71 71 72 71 71 72 69 67 65 65 66 67 68 68 69 70 70 71 71 74 75 74 74 74 75 76 75 75 76 77 78 80 83
97 97 97 95 94 91 86 84 81 80 76 80 79 79 79 74 75 77 77 75 76 75 73 72 71 70 71 73 73 74 74 74 76 77 78 80 81 81 80 81 82 82 82 83 83 82 84 85 86
99 96 97 96 92 89 88 83 81 83 81 77 77 81 82 81 83 81 80 81 81 79 77 76 75 75 76 77 77 79 79 80 81 83 84 85 85 87 87 89 89 88 87 87 86 87 85 85 92
99 98 98 96 94 93 88 86 84 85 84 81 81 80 83 86 86 85 85 87 87 86 83 81 81 81 83 81 82 82 84 85 85 86 88 89 91 92 93 94 92 91 91 93 93 93 95 96 98
102 102 100 99 94 92 87 82 81 83 84 85 83 80 81 84 87 88 88 90 91 91 90 88 86 88 87 87 85 85 86 86 88 90 91 93 96 95 93 93 94 95 96 100 100 102 103 104 102

GFSSGP_250_spd_072.txt.gz
Wind_Speed
31 36 32 32 29 27 28 35 42 44 43 47 36 30 26 24 24 24 21 20 18 16 16 15 19 20 20 23 25 23 25 25 23 25 26 29 28 28 25 23 24 25 22 24 26 30 32 35 40
22 27 27 25 24 30 30 33 34 39 35 35 30 26 24 24 24 24 21 19 18 16 14 13 15 16 17 19 19 20 19 20 22 24 23 25 25 25 24 23 22 22 25 27 30 34 38 39 41
26 28 24 27 28 27 27 30 33 36 37 39 30 26 24 23 23 21 20 18 17 14 13 13 13 12 11 15 17 18 17 19 20 24 27 25 27 28 28 28 28 29 30 33 33 35 37 40 42
27 27 27 29 30 31 31 31 35 39 31 38 33 27 24 21 20 18 17 16 15 14 14 12 12 12 11 12 18 22 21 21 22 22 24 27 28 29 29 31 31 31 35 38 38 39 41 41 42
33 34 31 28 29 25 23 26 29 34 30 37 33 27 24 21 18 16 15 13 13 12 12 12 11 10 11 14 16 18 21 23 23 23 24 26 29 33 33 33 35 36 35 38 39 41 41 43 45
34 34 30 28 21 17 21 26 28 30 31 37 35 30 25 21 17 14 12 11 9 10 9 10 10 9 10 13 16 19 22 23 23 25 24 24 28 32 33 33 33 36 37 38 39 40 43 43 39
30 25 23 19 20 20 24 28 31 29 30 29 32 31 27 20 16 12 10 9 8 8 8 8 8 10 11 13 15 18 22 23 25 25 27 29 29 30 31 32 36 35 38 41 42 42 42 39 40
33 30 30 26 27 26 28 28 29 28 29 27 35 30 27 23 15 12 10 7 6 7 7 7 6 8 9 12 15 16 20 21 24 25 27 28 29 30 33 35 38 39 42 41 40 41 40 37 36
42 29 24 25 26 23 23 21 23 21 25 27 31 26 24 23 18 13 11 9 8 6 6 6 5 6 8 10 12 13 16 17 20 23 24 25 26 29 32 34 36 37 38 37 36 36 36 36 35
33 34 27 24 21 21 24 20 19 24 25 31 28 21 24 22 19 16 12 12 10 9 8 9 9 8 8 9 11 12 13 15 17 18 19 22 23 24 27 29 31 32 33 34 35 36 36 37 37
42 35 29 25 19 22 22 24 20 25 28 28 31 34 28 25 25 24 19 13 13 13 11 9 10 11 12 12 13 14 15 16 17 19 20 22 23 25 27 29 31 32 33 35 35 36 37 38 40
45 36 34 31 25 20 25 24 23 22 25 25 32 37 34 29 24 20 22 22 22 18 17 15 13 12 11 12 14 14 15 16 18 20 21 22 24 25 27 29 31 32 34 35 37 38 39 39 40
45 36 35 34 34 30 34 31 26 21 24 27 31 32 31 33 29 25 21 21 25 22 21 19 18 17 17 17 17 18 18 18 19 21 22 23 26 27 29 30 32 33 34 36 37 38 40 40 41
48 48 42 40 36 32 33 33 25 18 18 25 31 31 30 32 30 33 26 26 26 24 21 20 21 21 22 22 22 23 23 23 22 24 25 26 28 29 31 32 33 34 35 36 37 39 40 40 38
51 48 48 41 39 38 35 29 25 19 28 30 28 25 27 33 36 33 31 33 35 30 26 23 23 23 22 23 24 25 26 27 26 26 28 28 29 31 33 33 34 35 36 36 36 37 38 38 39
60 46 47 44 44 42 37 33 37 32 32 37 30 36 33 27 31 35 33 34 34 34 33 29 29 28 26 24 25 25 26 29 30 29 28 29 31 32 34 34 36 37 37 36 36 37 37 38 38
49 47 45 40 44 43 46 41 38 36 36 36 34 29 29 32 32 34 35 38 38 36 36 38 37 35 29 29 30 28 28 29 31 31 31 31 33 34 35 36 37 39 40 39 39 38 38 38 40
55 56 52 48 45 44 44 45 44 40 39 38 36 33 38 37 35 34 37 36 39 38 44 44 41 40 34 30 34 35 34 34 31 28 33 36 38 37 38 39 41 42 44 44 44 42 44 44 43
60 57 55 53 50 50 46 43 47 44 42 43 41 41 41 36 41 37 36 41 46 46 50 49 43 41 39 38 40 40 39 41 39 36 36 35 37 39 40 40 42 43 43 43 44 44 45 47 49
59 57 55 57 57 55 56 53 48 49 50 49 54 51 42 50 42 41 47 47 48 48 49 46 42 42 42 43 43 44 45 45 46 44 45 46 47 46 47 46 48 46 47 47 46 46 48 50 51
69 70 59 58 54 53 54 57 55 54 52 52 53 50 48 50 49 54 52 55 56 54 50 48 47 46 45 47 47 46 49 51 50 50 51 52 53 52 52 52 53 52 49 50 52 51 51 52 55
73 70 67 64 62 55 54 54 55 57 55 52 54 53 52 57 60 53 57 59 64 57 55 52 49 50 51 51 52 52 51 54 55 56 54 55 55 56 56 58 56 57 57 56 56 58 57 58 61
80 76 70 68 66 66 63 59 64 64 64 57 54 58 65 61 60 57 60 63 62 59 56 55 53 55 55 55 57 56 56 56 58 59 62 62 62 61 61 63 64 64 64 63 63 63 64 64 65
75 75 73 73 73 70 67 64 60 65 64 61 61 64 63 64 64 66 71 68 66 63 64 63 59 60 61 60 61 61 61 61 62 63 64 65 67 68 68 69 69 69 70 69 69 70 72 74 74
81 78 78 76 69 66 71 68 61 64 69 69 63 64 70 72 77 74 76 71 70 68 66 67 65 67 68 67 67 68 67 67 67 67 69 71 71 72 73 75 76 76 77 78 79 79 79 82 82
95 92 90 86 83 80 79 73 72 74 77 82 78 79 75 77 81 80 76 75 79 74 72 70 70 73 71 71 73 74 73 73 72 74 75 76 77 77 78 78 80 81 82 85 86 85 88 89 88
94 93 91 91 90 84 83 84 85 84 81 81 84 83 83 87 82 82 82 83 82 78 78 76 74 75 76 75 78 79 79 80 79 79 79 82 82 83 84 84 84 86 88 88 89 90 92 92 93
95 96 96 94 95 95 94 93 91 85 86 86 86 87 88 91 89 89 87 85 83 81 81 81 78 79 81 82 82 82 83 84 84 85 86 86 87 88 88 89 89 88 90 91 92 92 93 93 92
107 104 106 107 104 102 99 94 89 86 85 85 86 88 88 90 90 89 91 90 89 86 85 85 84 84 85 86 88 88 88 88 88 89 88 88 89 89 91 92 93 93 94 95 94 94 95 96 99
107 106 105 102 99 97 93 92 90 89 89 91 92 92 91 91 92 94 92 90 90 91 92 92 90 91 91 91 91 90 90 89 89 89 90 91 92 92 93 95 95 96 97 99 99 101 103 105 107

GFSSGP_250_spd_075.txt.gz
Wind_Speed
36 37 36 36 35 33 28 25 32 36 38 40 44 46 40 30 23 20 16 15 14 14 17 19 20 20 19 19 21 21 21 20 20 22 22 21 20 18 21 24 26 28 32 32 29 30 34 34 35
38 38 32 28 31 26 24 25 26 31 35 41 45 43 36 25 21 20 17 16 16 16 17 18 17 18 17 17 17 17 19 18 17 18 19 18 19 20 19 20 23 23 25 26 29 30 30 31 35
35 29 24 24 19 19 23 27 28 31 37 42 47 42 34 24 21 20 17 15 16 15 17 17 16 16 13 12 13 13 14 13 14 14 17 18 19 19 20 21 24 25 27 30 32 32 35 36 38
30 21 21 23 22 22 23 25 28 30 35 45 36 37 30 23 21 19 18 13 13 13 15 16 15 12 10 11 11 12 14 14 14 15 16 18 20 21 25 27 27 30 31 31 34 38 39 38 38
31 24 25 23 25 22 21 15 17 25 31 33 32 35 30 25 22 19 17 13 10 10 13 12 13 12 11 8 9 9 11 14 17 18 18 19 20 21 26 28 31 33 33 35 37 37 38 38 38
31 32 30 29 28 26 20 16 20 25 27 30 30 34 30 26 23 19 16 13 9 7 8 10 11 11 9 8 8 10 11 14 17 19 19 19 21 23 25 26 29 32 31 30 34 34 36 38 37
27 31 30 29 15 20 18 19 22 24 26 27 27 28 28 26 25 20 15 12 9 6 4 5 7 8 9 8 8 9 13 15 17 19 21 22 23 23 25 26 27 29 30 32 33 35 35 35 34
32 26 24 22 18 18 18 19 15 21 21 27 26 24 25 24 24 20 16 12 10 7 5 5 3 5 7 7 9 11 13 14 17 19 20 22 23 24 24 26 26 27 29 31 31 31 31 32 33
33 34 27 23 24 19 20 18 15 15 17 26 25 25 21 23 29 20 18 16 13 10 7 6 4 5 6 7 7 8 9 12 14 16 17 18 20 21 22 23 24 25 26 28 29 31 32 34 36
32 31 32 32 29 18 17 17 16 16 17 27 27 24 25 24 25 25 21 18 16 16 15 13 9 7 6 6 7 8 9 11 12 13 15 16 17 20 20 22 23 25 27 28 29 29 31 32 32
34 32 33 28 24 18 14 13 12 20 19 22 22 25 28 26 21 19 25 28 22 18 17 15 15 14 12 9 8 8 9 10 11 13 15 16 17 19 21 23 24 25 26 27 29 30 32 34 35
43 33 35 28 26 23 21 20 14 25 21 17 17 28 27 27 25 22 21 23 29 28 21 20 18 16 15 14 13 12 12 12 12 13 14 16 18 19 22 24 25 26 28 29 31 32 35 35 36
44 41 40 38 35 28 27 22 20 30 26 20 16 25 27 27 29 31 25 25 27 26 24 24 23 22 20 18 16 15 15 15 16 17 18 19 20 22 24 24 26 28 29 31 32 32 33 33 33
52 45 41 38 39 27 27 31 25 23 21 18 16 20 26 30 30 26 28 28 28 30 29 25 26 27 24 20 18 18 18 19 20 20 21 23 24 25 27 28 29 29 30 31 31 31 31 33 33
52 49 45 43 46 32 33 31 27 23 24 22 24 29 23 21 29 27 30 31 31 28 30 32 34 35 30 25 19 18 18 18 19 21 22 22 23 25 26 27 28 28 28 29 32 33 34 33 33
53 59 49 49 43 42 40 35 35 32 29 30 28 26 23 29 25 27 31 30 33 33 35 38 38 38 36 31 23 23 25 23 22 21 21 21 23 25 26 28 29 31 34 36 35 35 33 34 33
47 58 51 51 46 47 39 39 37 36 35 33 26 27 28 30 30 32 36 33 38 34 35 38 38 42 37 34 32 32 32 30 30 29 28 27 27 29 30 34 35 36 37 40 40 39 37 36 36
61 58 51 47 49 40 43 38 41 40 40 35 34 37 31 34 32 37 38 39 39 38 36 45 41 43 41 37 37 37 37 36 36 36 36 36 29 31 32 34 35 38 40 40 38 37 38 40 41
60 52 55 50 44 44 40 39 41 46 42 36 34 37 31 33 36 43 43 39 42 40 40 44 45 47 45 40 40 40 40 41 42 42 43 42 39 30 33 34 35 39 42 43 44 44 45 48 47
61 54 60 58 56 49 49 46 46 45 44 42 41 40 40 42 40 44 45 41 46 46 46 46 53 49 47 44 43 43 45 46 46 45 46 47 45 47 48 47 47 48 51 51 51 51 52 53 55
63 57 59 49 52 53 52 54 50 50 48 45 48 45 46 44 41 41 46 46 46 52 48 52 55 53 50 49 48 48 49 53 52 52 52 52 54 53 54 55 56 57 56 57 60 60 59 59 62
72 68 66 58 53 50 50 50 51 50 49 47 45 47 46 46 44 45 48 48 52 53 52 56 58 60 56 57 56 54 52 56 57 57 56 56 56 59 60 59 61 64 65 63 64 66 66 66 67
74 70 76 71 65 63 58 57 56 56 53 51 48 50 53 54 52 54 51 53 57 56 60 61 65 64 63 65 61 59 59 59 60 60 63 63 63 61 63 64 66 67 69 71 71 71 72 72 72
80 77 77 74 73 64 68 64 65 65 63 59 59 62 62 63 56 56 55 56 57 60 66 65 68 66 68 68 65 65 65 65 65 64 65 66 67 66 67 69 71 71 72 73 75 77 78 78 79
77 81 81 79 72 62 66 66 63 63 64 63 64 65 63 64 64 64 67 62 68 69 68 71 72 73 73 72 71 70 70 68 69 69 69 72 73 74 73 74 75 75 76 79 79 80 79 82 83
86 89 77 80 78 72 71 67 64 67 69 72 69 65 66 68 73 72 73 76 70 73 73 76 75 78 76 77 76 75 75 74 73 74 74 76 78 79 80 80 79 80 79 81 81 82 83 86 84
86 87 86 81 83 77 77 72 73 72 69 73 76 74 76 74 74 74 82 77 74 75 79 79 80 81 82 81 81 80 79 78 80 77 78 79 80 81 83 84 82 83 84 83 82 83 86 88 89
95 95 97 93 92 88 86 84 84 80 82 82 83 85 86 86 87 88 87 82 85 81 82 83 85 86 87 86 87 86 85 84 83 80 81 81 82 83 86 86 86 87 86 87 87 89 90 92 93
101 98 98 98 97 92 88 85 86 89 88 85 86 86 87 90 91 93 89 89 91 89 86 86 88 90 90 90 89 88 87 88 88 87 86 87 88 87 88 88 90 89 90 93 94 95 94 94 96
109 109 105 100 96 96 96 93 90 88 90 89 87 90 92 93 97 97 91 96 96 92 92 92 93 95 95 95 93 91 90 93 93 93 93 93 92 92 93 93 93 94 98 100 99 98 100 102 102

GFSSGP_250_spd_078.txt.gz
Wind_Speed
35 32 28 27 26 29 29 31 28 29 28 33 41 46 42 47 39 27 17 15 11 11 12 14 16 18 20 20 21 22 22 23 25 25 27 27 25 23 23 22 23 24 27 30 32 35 38 37 37
35 32 31 32 33 31 31 29 24 24 30 36 40 46 43 45 32 21 14 12 8 8 10 12 14 16 18 19 19 20 20 20 20 21 21 24 21 19 17 20 23 25 27 27 30 33 35 38 40
35 34 35 35 36 27 20 17 20 22 26 28 37 45 45 36 26 19 14 14 11 8 8 10 13 14 16 17 18 17 18 18 19 18 16 17 18 17 16 18 19 22 27 29 30 32 35 36 38
38 37 30 26 23 20 18 15 18 17 20 30 36 41 41 35 24 18 15 13 10 10 10 11 11 13 14 16 15 14 15 15 16 12 14 14 14 16 18 19 22 24 28 29 31 33 35 38 38
39 38 34 21 20 18 18 16 15 17 23 26 34 37 43 36 28 19 15 13 10 7 7 8 8 11 14 13 11 11 11 13 15 12 11 13 14 16 19 20 22 25 30 31 33 33 35 34 33
40 33 30 20 21 17 20 15 21 19 19 25 28 33 37 36 27 20 18 14 11 9 6 5 6 8 8 10 10 9 9 10 10 11 11 12 14 17 18 21 22 24 27 29 31 30 33 33 34
44 32 31 26 24 24 25 23 22 18 16 20 26 27 26 25 27 22 20 16 13 9 4 3 3 3 4 5 6 7 7 9 11 11 11 14 16 18 20 22 22 24 25 26 27 28 29 31 31
39 35 29 25 25 20 15 14 18 17 10 13 20 23 25 20 24 25 21 19 15 13 9 6 4 3 3 4 3 5 7 9 10 11 12 14 15 17 18 20 21 22 23 24 25 27 28 29 30
35 34 25 20 21 22 13 15 16 15 13 13 17 19 20 26 21 23 25 25 21 17 15 13 10 9 8 5 3 3 4 5 6 9 11 13 14 15 17 18 19 21 23 23 23 24 26 28 28
44 37 30 26 24 23 16 16 17 18 14 14 17 18 23 26 19 18 25 27 27 23 20 17 16 15 13 11 9 6 5 5 6 7 9 10 12 13 15 16 16 19 21 22 24 24 26 27 29
41 36 32 27 29 25 24 17 14 10 14 19 17 15 22 25 20 22 17 22 23 22 25 24 23 19 15 14 13 13 11 10 9 10 10 11 12 14 15 17 18 19 21 23 26 28 29 31 31
43 37 36 29 30 27 24 19 17 16 15 20 22 13 21 24 23 23 19 22 22 21 20 19 21 23 21 15 12 11 11 12 12 13 14 14 15 16 18 19 20 22 24 26 28 29 30 30 32
49 44 35 30 28 33 25 25 23 20 14 15 19 18 16 17 24 22 19 22 23 22 22 22 21 23 22 23 15 13 12 11 12 14 15 16 17 18 19 21 22 21 21 22 24 26 28 30 31
53 45 40 39 34 36 31 30 22 25 21 18 16 19 14 19 19 22 20 20 23 25 28 26 28 27 27 21 19 18 19 20 17 17 16 15 15 16 16 16 18 19 22 25 26 27 28 29 30
53 51 43 41 38 36 37 35 25 21 27 22 24 16 22 17 16 22 22 26 29 25 29 27 25 27 26 26 20 20 21 22 22 22 21 21 19 20 20 21 24 24 24 24 28 29 30 28 30
52 51 47 46 46 45 39 36 34 30 31 27 26 23 19 16 21 27 30 28 29 31 26 30 29 28 29 30 28 24 22 22 23 24 27 27 27 28 28 27 25 25 24 26 26 28 31 32 34
48 52 55 46 47 48 43 42 39 33 34 31 31 30 27 24 28 31 28 26 28 33 34 31 34 35 31 34 32 29 29 29 28 29 32 33 32 32 30 27 28 28 30 33 35 36 36 36 38
58 58 58 59 54 52 55 46 46 42 40 38 36 37 31 32 32 25 26 28 32 35 35 36 34 39 37 40 36 35 34 33 34 35 37 39 39 38 35 36 39 40 41 42 43 45 46 47 46
70 65 60 56 52 43 57 44 49 40 41 36 39 41 37 29 30 29 32 34 33 33 36 40 38 41 43 44 44 42 42 44 44 40 41 44 44 44 42 43 43 44 48 50 48 51 53 55 55
71 67 58 58 57 57 48 45 42 44 43 44 41 42 40 34 36 39 37 36 33 34 38 40 42 45 47 48 51 49 47 46 47 45 46 46 49 49 49 48 48 49 51 53 54 55 58 60 61
59 69 65 58 65 55 61 51 48 44 42 41 39 42 41 39 38 38 39 38 36 41 42 45 44 47 48 50 53 55 55 52 53 49 51 51 51 51 53 54 53 56 58 59 61 61 61 62 65
67 69 67 66 63 60 57 55 55 53 50 48 45 43 43 42 44 42 39 39 44 44 48 50 50 49 49 54 57 57 59 58 57 53 54 55 56 57 57 57 58 60 62 64 64 65 67 68 69
78 70 65 73 69 67 59 57 50 47 48 47 45 48 48 45 44 44 46 49 50 53 53 57 54 52 56 62 58 61 66 65 63 61 62 61 60 58 61 63 65 65 66 66 68 71 73 74 73
78 81 76 71 76 68 63 59 58 52 49 50 50 49 49 51 55 53 54 57 57 58 61 59 58 60 65 60 64 68 71 69 68 67 67 68 67 66 66 68 68 67 68 71 70 71 73 77 76
85 84 75 73 76 69 72 68 67 64 63 61 61 60 59 60 57 57 58 61 65 58 65 65 66 64 69 74 73 73 73 73 73 74 72 74 74 73 73 71 73 72 72 72 72 74 77 79 79
91 88 86 82 75 72 77 72 73 71 70 66 61 62 60 61 60 60 62 61 62 68 69 73 73 74 77 80 77 76 77 76 77 77 78 79 80 79 78 76 77 79 79 77 78 78 80 81 82
91 89 92 91 92 80 74 69 69 72 74 77 71 68 66 69 70 68 68 69 72 76 78 77 77 79 82 84 80 80 80 79 80 80 83 84 84 85 85 84 83 84 84 83 81 81 83 84 86
93 92 91 89 90 87 80 82 72 69 71 74 74 75 75 71 71 77 79 79 80 79 81 80 84 85 86 85 83 85 85 85 84 86 88 88 88 89 89 88 88 91 89 88 88 88 89 89 92
99 97 89 89 83 81 79 79 79 82 84 82 83 83 83 83 85 86 84 85 84 87 90 87 89 86 89 92 88 92 88 89 89 91 91 91 92 92 92 92 95 96 96 95 95 97 98 98 100
103 102 103 99 94 95 90 87 89 88 84 86 87 91 92 93 91 90 91 93 92 92 97 95 91 92 98 97 97 96 95 95 96 95 98 97 96 96 96 98 100 102 101 102 104 104 103 103 102

GFSSGP_250_spd_084.txt.gz
Wind_Speed
37 37 37 35 34 32 32 29 19 21 24 26 31 34 37 45 48 48 41 27 23 21 19 19 18 17 17 18 16 17 17 20 22 23 26 28 29 31 32 33 34 34 34 35 35 35 36 37 37
38 37 40 36 31 30 31 20 18 22 23 23 24 34 39 44 49 45 34 24 19 16 14 14 15 15 15 16 13 12 17 19 20 22 23 26 28 29 30 30 29 29 27 27 27 28 30 31 35
40 42 36 33 28 28 23 19 21 23 25 18 26 34 37 46 49 45 28 25 18 10 9 9 10 11 10 10 9 10 16 18 19 21 22 22 23 25 25 24 21 21 21 22 23 26 26 29 32
43 41 33 31 32 32 22 19 22 24 18 20 23 28 36 43 45 42 31 24 17 9 6 5 6 8 6 7 7 11 16 18 19 18 19 20 21 22 20 20 20 23 21 22 23 26 28 30 32
42 40 35 35 37 28 23 21 23 20 16 19 21 28 32 36 41 45 33 25 18 11 7 5 3 3 2 3 6 8 12 15 16 15 15 16 16 16 17 16 16 18 21 21 23 25 27 29 30
39 38 37 42 31 28 26 26 24 20 16 19 18 26 24 30 36 42 35 27 20 12 9 7 6 5 3 2 1 3 6 9 10 13 13 14 14 14 14 15 16 17 19 21 22 23 24 26 27
40 43 43 40 38 37 31 32 21 18 15 16 16 22 20 22 35 32 32 29 23 15 12 10 10 8 7 6 4 3 0 1 3 5 7 9 10 10 12 14 16 17 19 19 19 21 22 23 25
49 49 46 43 38 34 34 32 25 22 21 14 13 18 18 24 26 27 30 28 25 18 14 13 13 10 10 8 8 8 7 6 5 6 6 6 8 10 12 13 14 15 17 18 19 21 22 23 25
56 42 51 46 39 35 39 32 27 21 23 11 12 12 15 22 23 27 31 22 22 22 17 14 14 13 14 12 12 11 10 9 9 8 9 10 11 13 14 14 15 16 17 19 21 22 22 24 25
50 47 41 40 37 38 38 30 23 26 20 12 11 10 14 18 24 24 24 21 18 20 20 18 16 15 14 12 11 10 9 9 8 8 7 8 8 9 11 13 15 16 16 16 16 16 17 18 20
46 50 42 41 39 42 36 30 27 21 17 12 12 7 13 17 20 18 19 16 18 18 20 17 18 16 13 12 12 13 12 12 12 13 12 12 13 14 14 14 12 11 12 12 14 17 18 20 21
48 41 52 43 40 38 43 28 26 23 16 17 14 10 13 16 16 12 16 17 17 20 21 20 20 19 21 18 16 15 16 16 15 15 14 15 16 18 17 17 18 17 18 20 20 21 21 22 23
62 48 46 43 41 42 45 33 28 23 17 18 15 14 17 16 13 12 10 16 21 26 24 16 18 17 18 22 20 18 17 16 15 15 15 14 16 17 19 20 21 22 23 25 23 24 24 25 28
60 55 52 54 48 49 46 32 29 28 21 21 22 21 23 16 14 12 10 17 21 24 24 21 17 15 18 17 20 22 20 20 21 20 21 23 22 23 23 23 25 26 26 28 28 28 29 32 34
69 63 59 52 49 47 50 40 31 26 25 27 25 24 19 18 20 11 11 18 18 24 24 24 23 24 21 20 22 27 25 21 24 24 26 28 31 30 27 29 30 29 29 29 31 33 36 39 41
64 63 61 55 51 50 47 37 36 32 28 32 24 21 24 22 19 13 17 18 28 31 25 28 26 28 26 26 24 29 29 29 27 26 28 32 36 38 38 35 35 34 33 33 34 34 37 40 43
67 59 50 58 57 55 47 46 34 33 30 32 28 28 27 23 18 23 28 30 31 30 27 26 29 27 31 30 33 33 36 37 36 33 35 37 42 45 41 40 40 40 39 39 39 40 43 45 46
67 63 63 60 67 57 51 51 42 32 33 32 32 34 30 32 30 34 35 33 30 28 26 27 27 32 32 31 37 34 35 40 36 35 35 37 45 48 44 43 45 50 44 41 41 43 46 49 49
70 60 62 69 69 65 61 59 52 45 37 36 40 36 35 41 41 40 35 31 26 32 33 32 30 32 35 33 35 35 36 40 40 37 35 42 45 48 47 51 48 53 47 45 45 51 53 56 56
79 75 67 64 62 59 55 51 51 56 45 43 39 41 41 41 44 43 39 32 33 36 38 34 33 37 38 37 40 41 42 43 43 46 43 45 51 52 55 51 51 50 54 54 55 59 58 62 62
85 83 69 71 65 61 59 55 52 54 52 48 46 44 38 43 46 46 37 36 39 38 35 37 37 41 41 45 42 48 47 47 51 50 50 48 55 60 62 59 56 56 57 57 60 64 65 66 67
91 85 79 73 74 71 65 57 53 51 50 51 48 44 50 48 42 43 43 44 42 38 41 38 40 45 45 45 50 52 51 52 55 58 57 55 60 65 67 62 63 60 63 65 67 70 68 71 71
95 92 84 79 69 71 77 60 55 58 54 53 52 46 49 53 51 43 42 42 42 49 48 44 47 45 45 47 49 54 53 57 62 62 63 69 68 72 71 72 71 70 72 74 73 75 78 80 81
93 95 86 87 79 71 74 72 59 56 63 61 60 58 53 53 61 59 54 54 50 51 53 57 58 50 49 52 54 55 56 63 67 68 69 75 75 79 81 77 76 78 80 80 82 83 86 87 88
83 92 97 93 84 74 74 70 66 63 66 63 59 60 64 58 56 62 66 62 60 60 59 55 52 58 62 61 57 58 66 70 73 74 75 78 79 84 87 86 84 85 85 86 88 89 91 91 92
92 89 85 91 80 71 78 76 73 68 68 67 63 66 67 68 69 61 60 60 61 56 56 60 63 63 66 63 62 69 70 73 75 79 78 82 83 89 93 92 91 92 90 92 92 94 96 95 98
103 102 95 96 90 86 86 70 76 68 67 67 67 66 66 61 62 62 65 61 65 66 67 70 71 72 71 74 75 78 76 79 86 82 84 90 92 93 99 97 95 96 99 99 100 102 102 103 104
100 101 100 98 94 92 85 84 81 73 72 74 74 73 70 66 68 69 67 66 68 70 67 68 70 74 75 77 80 79 81 86 86 86 90 95 99 100 103 105 102 102 102 103 102 105 106 105 107
93 91 88 88 91 90 87 79 71 71 74 78 77 78 80 82 84 78 80 78 78 77 72 74 75 76 80 83 85 86 90 92 91 92 96 100 104 107 107 108 108 109 108 109 108 109 109 110 111
97 91 92 92 90 88 89 84 85 87 91 91 90 90 87 89 86 83 82 85 84 85 83 83 83 88 87 88 93 93 97 96 98 96 102 107 109 111 112 111 111 111 111 111 113 115 114 116 115

GFSSGP_250_spd_087.txt.gz
Wind_Speed
42 33 34 35 33 33 31 27 27 28 24 22 26 28 32 36 41 45 44 30 23 19 19 17 16 15 15 13 12 11 13 17 19 21 22 23 26 27 30 30 32 34 33 34 34 35 35 35 35
43 41 39 35 33 32 29 29 29 26 19 22 27 24 33 35 42 48 39 25 23 18 15 13 12 12 12 11 10 12 14 15 17 18 20 21 24 25 27 29 29 30 30 31 31 30 30 31 31
41 40 39 34 33 30 33 25 24 20 19 24 17 29 32 36 39 44 36 23 21 15 10 8 8 9 9 9 10 15 15 15 14 16 17 19 21 22 23 25 26 27 28 28 29 27 26 27 28
43 41 31 31 33 36 24 27 23 17 19 22 25 25 29 30 41 40 34 26 23 16 8 5 5 5 6 6 7 10 10 12 14 17 16 17 18 19 20 23 21 19 22 24 23 24 24 26 27
42 35 33 38 40 31 23 22 15 15 19 20 20 24 24 26 38 37 36 30 25 20 13 8 5 2 2 1 4 5 9 10 11 14 14 15 16 16 17 19 18 18 18 19 21 22 24 25 25
42 38 40 42 33 27 29 29 20 18 20 22 20 21 22 24 32 36 36 34 27 25 19 14 9 6 5 5 2 2 4 5 7 8 9 12 13 14 16 17 15 16 17 18 19 20 20 22 23
45 46 42 43 35 27 27 23 20 21 23 23 19 17 19 21 26 34 40 36 30 28 23 18 13 9 7 7 7 7 6 7 7 8 7 8 8 9 11 13 14 15 15 16 18 18 19 20 22
49 48 48 40 33 39 36 26 26 26 28 29 19 15 15 20 22 32 34 31 29 26 24 20 17 12 11 11 10 10 10 9 8 7 8 7 7 8 9 11 12 13 13 14 16 17 19 20 21
57 49 38 40 39 42 37 32 32 31 33 20 20 13 12 15 19 28 28 26 27 26 23 24 20 16 15 15 14 14 14 13 12 12 11 11 11 13 13 12 13 15 15 16 17 17 18 19 21
55 49 41 37 39 40 36 33 30 32 28 21 19 15 7 11 19 22 21 19 23 28 24 21 21 22 18 17 16 17 16 16 16 16 14 14 14 14 15 15 16 15 15 16 17 19 20 20 20
62 47 40 46 39 43 44 40 31 30 23 23 18 18 8 10 16 19 15 15 15 18 24 23 21 20 19 19 16 15 16 15 15 14 13 14 14 13 13 14 15 17 18 21 23 24 24 24 24
57 55 54 52 46 37 43 36 33 33 28 22 19 17 13 11 12 15 14 15 18 23 21 24 19 17 21 22 21 20 19 18 16 16 17 19 19 19 19 20 21 23 24 25 27 27 27 30 31
64 55 62 53 44 40 35 34 37 33 24 28 21 19 16 18 13 12 16 13 15 17 27 25 20 14 16 16 20 18 16 17 17 16 17 20 23 25 26 25 25 27 28 28 29 30 31 32 34
64 60 60 51 41 47 38 36 33 39 28 27 19 21 20 16 21 13 13 10 10 16 26 28 27 20 17 17 16 18 19 19 17 16 17 20 26 30 32 30 29 29 34 37 35 34 35 37 40
71 67 61 53 43 42 41 38 38 36 28 31 20 23 23 18 20 17 15 11 15 25 24 26 29 24 23 20 19 21 22 23 22 21 20 22 26 31 35 34 34 37 38 41 40 37 39 40 44
77 68 65 54 49 48 40 41 38 38 29 32 23 30 26 20 20 25 18 17 21 22 24 23 27 27 28 28 23 25 27 30 29 28 29 27 28 31 33 39 41 36 36 39 39 43 40 40 45
74 70 62 59 56 50 51 47 48 41 40 34 29 32 33 24 23 22 21 22 24 25 23 23 23 28 30 31 28 29 31 32 35 32 31 36 33 35 35 41 46 44 39 40 41 42 44 45 48
79 67 67 64 60 56 55 53 51 40 43 37 37 37 32 31 24 27 25 32 29 27 26 26 26 30 30 29 30 32 35 37 40 36 35 42 48 45 40 44 49 49 44 43 45 45 50 49 49
80 79 71 70 64 63 59 58 55 45 49 36 35 33 31 34 26 27 33 33 35 36 29 27 29 32 31 31 31 36 39 42 43 43 46 50 48 48 50 50 53 54 55 50 50 54 56 59 54
80 81 79 75 74 71 62 65 57 50 50 49 35 34 34 34 34 37 35 36 37 38 33 30 33 30 31 34 36 39 44 48 46 45 48 50 55 59 55 60 62 57 62 60 62 63 65 66 63
83 75 75 74 75 64 62 58 56 57 51 49 49 46 46 38 42 39 39 38 35 39 37 34 34 33 35 37 38 45 48 49 46 47 45 49 57 61 65 65 64 64 67 71 74 71 71 71 72
87 87 78 79 75 75 70 52 58 61 61 58 46 50 51 50 46 44 45 42 42 40 41 42 37 36 42 40 41 48 46 45 44 49 51 53 61 61 69 66 73 70 72 77 80 81 78 80 79
97 92 90 84 79 73 66 56 60 65 57 51 51 49 47 49 52 45 49 52 50 44 43 43 38 42 46 49 50 51 51 47 56 56 55 56 62 69 69 72 71 71 76 82 86 88 84 84 86
100 93 93 93 82 77 64 57 57 57 52 54 53 53 51 51 51 52 51 48 46 50 51 49 53 53 52 55 54 52 53 55 60 62 60 62 67 74 72 75 78 78 81 84 90 93 93 93 96
99 101 97 99 88 78 76 68 57 58 59 57 54 51 54 59 59 55 55 56 53 53 53 55 58 59 58 55 55 55 59 65 63 67 66 72 75 80 76 82 84 86 88 89 95 99 100 101 103
94 91 85 87 80 79 79 73 72 68 62 72 70 71 65 63 62 66 65 59 56 59 59 62 65 61 58 58 61 68 68 72 71 69 72 80 83 82 84 86 91 93 96 96 101 103 106 109 107
102 102 96 92 89 92 88 91 79 72 74 71 72 72 71 71 68 68 69 66 61 62 64 62 58 58 57 60 65 69 72 73 77 79 81 85 85 84 89 88 95 100 101 101 105 108 111 113 112
103 100 98 97 89 85 85 87 81 82 82 81 82 76 76 76 74 72 72 70 69 68 62 61 64 72 73 73 75 76 76 76 80 88 89 89 90 93 95 93 102 101 104 108 109 113 114 118 117
106 106 104 97 90 84 83 83 80 81 85 87 84 80 78 76 74 76 77 73 69 72 73 72 77 78 79 78 80 83 83 84 87 91 91 92 94 94 99 101 104 110 110 111 115 117 120 123 121
109 110 113 108 98 91 85 83 79 84 84 84 85 91 91 88 90 87 80 72 72 77 79 83 82 83 80 80 80 81 83 89 92 93 95 101 97 99 104 106 112 115 113 115 117 120 123 126 124